Regional Weather Roundup
Issued by NWS

Home | Current Version | Previous Version | Graphics & Text | Print | Product List | Glossary On
Versions: 1 2 3 4 5 6 7 8 9 10 11 12 13 14 15 16 17 18 19 20 21 22 23 24 25 26 27
000
ASUS45 KBOU 190607
RWRCO

WEATHER ROUNDUP FOR COLORADO
NATIONAL WEATHER SERVICE DENVER/BOULDER CO
1200 AM MDT TUE SEP 19 2017

NOTE: "FAIR" INDICATES FEW OR NO CLOUDS BELOW 12000 FEET WITH NO
SIGNIFICANT WEATHER AND/OR OBSTRUCTIONS TO VISIBILITY.

COZ001>005-013-030-031-190700-
...NORTHWEST COLORADO...

CITY           SKY/WX    TMP DP  RH WIND       PRES   REMARKS
CRAIG          FAIR      52  34  50 E5        29.89F
HAYDEN         FAIR      60  24  25 S8        29.93F
MEEKER         FAIR      56  30  37 NW3       29.91F
RABBIT EARS PA FAIR      45  21  39 SW13G36   30.14F
STEAMBOAT SPGS FAIR      53  33  48 SE5       29.94F
WALDEN         FAIR      54  23  30 S12G18    30.02F
$$

COZ006>008-011-190700-
...WEST CENTRAL VALLEYS...

CITY           SKY/WX    TMP DP  RH WIND       PRES   REMARKS
GRAND JUNCTION FAIR      62  28  27 SE12      29.85F
MONTROSE       FAIR      57  31  37 SE5       29.98F
EAGLE          FAIR      54  28  36 E10       29.99F
RIFLE          FAIR      65  24  21 SE12      29.89F
DELTA          FAIR      61  30  30 MISG      29.94F
NUCLA          FAIR      59  25  27 E7        30.02F
$$

COZ017>023-064>068-190700-
...SOUTHWEST COLORADO...

CITY           SKY/WX    TMP DP  RH WIND       PRES   REMARKS
DURANGO        FAIR      47  31  53 S3        30.12S
CORTEZ         FAIR      46  34  62 VRB6      30.05F
PAGOSA SPRINGS FAIR      43  27  52 CALM      30.19S
TELLURIDE      FAIR      58  19  21 S12G21    30.21F
WOLF CREEK PAS NOT AVBL
$$

COZ009-010-012-014-032>034-037-058>063-190700-
...CENTRAL COLORADO...

CITY           SKY/WX    TMP DP  RH WIND       PRES   REMARKS
ASPEN          FAIR      53  25  33 S16       30.06F
BUENA VISTA    FAIR      51  30  43 CALM      30.10F
COPPER MTN     FAIR      45  10  24 S21G29    30.30F
BERTHOUD PASS  FAIR      37  30  75 W24G43    30.28F
COTTONWOOD PAS FAIR      54  12  19 S9        30.21F
GUNNISON       FAIR      42  32  67 N5        30.13F
KREMMLING      FAIR      59  23  25 SE8       30.01F
LEADVILLE      FAIR      48  12  23 SE12G28   30.18F
MONARCH PASS   FAIR      41  19  42 SW38G45   30.43F
SALIDA         FAIR      57  28  32 NW3       30.15F
SUNLIGHT       FAIR      41  21  45 SW13G30   30.23R
WILKERSON PASS FAIR      43  27  52 SW23G35   30.26F
$$

COZ069>075-190700-
...SAN LUIS VALLEY/SANGRE DE CRISTO MOUNTAINS...

CITY           SKY/WX    TMP DP  RH WIND       PRES   REMARKS
ALAMOSA        FAIR      44  30  57 SE5       30.13F
DEL NORTE      FAIR      46  24  42 W14       30.16F
LA VETA PASS   FAIR      48  19  32 S28G39    30.34F
SAGUACHE       FAIR      45  32  61 NW7       30.16S
$$

COZ035-036-038>040-190700-
...NORTHERN COLORADO FRONT RANGE...

CITY           SKY/WX    TMP DP  RH WIND       PRES   REMARKS
DENVER INTL AP FAIR      67  35  30 S18       29.84F
DMNS CITY PARK   N/A     62  40  44 E9        29.83F
AURORA         CLEAR     65  36  34 S22       29.85F
FRONT RANGE AP FAIR      63  36  36 S5        29.86F
ERIE MUNI ARPT FAIR      55  33  43 SW3       29.88F
BOULDER MUN AP FAIR      64  32  29 SW6       29.82F
CENTENNIAL     FAIR      63  37  38 S15       29.87F
BROOMFIELD     FAIR      63  32  31 SE3       29.86F
FORT COLLINS   FAIR      56  40  55 SE9G20    29.81F
LONGMONT       FAIR      57  36  44 CALM      29.83F
$$

COZ041-046-047-076>085-087-088-190700-
...PIKES PEAK/PALMER DIVIDE AND SOUTHERN FOOTHILLS...

CITY           SKY/WX    TMP DP  RH WIND       PRES   REMARKS
COLO. SPRINGS  FAIR      54  37  52 E8        29.96F
A. F. ACADEMY  FAIR      49  34  56 N6        29.97F
SCHRIEVER AFB  FAIR      56  34  44 CALM      29.96F
CHEYENNE MTN   NOT AVBL
ELLICOTT       NOT AVBL
FALCON         FAIR      51  35  53 NW3       30.00F
FORT CARSON    FAIR      56  36  46 NW3       29.93F
LIMON            N/A    N/A N/A N/A MISG      29.91F
MONUMENT HILL  FAIR      52  34  50 S13       30.00F
CANON CITY     CLEAR     63  37  39 MISG      29.91F
WALSENBURG     FAIR      63  23  22 S7        29.98F
TRINIDAD       FAIR      57  34  41 SW13      29.97F
$$

COZ042>045-048>051-090-091-190700-
...NORTHEAST COLORADO...

CITY           SKY/WX    TMP DP  RH WIND       PRES   REMARKS
GREELEY ARPT   FAIR      56  39  53 S7        29.80F
AKRON          FAIR      61  42  49 S17       29.85F
BURLINGTON     FAIR      61  48  62 SE12      29.87F
WRAY           FAIR      61  46  59 E7        29.85F
YUMA           FAIR      55  45  67 SE6       29.84F
STERLING       FAIR      64  45  48 S15G22    29.79F
HOLYOKE        FAIR      61  50  67 SE8       29.84F
FORT MORGAN    FAIR      61  39  43 SE8       29.83F
$$

COZ086-089-092>099-190700-
...SOUTHEAST COLORADO...

CITY           SKY/WX    TMP DP  RH WIND       PRES   REMARKS
PUEBLO         FAIR      56  31  38 SW3       29.86F
LA JUNTA       FAIR      63  40  42 SW12      29.85F
LAMAR          FAIR      64  49  57 S9        29.82F
SPRINGFIELD    NOT AVBL
$$




USA.gov is the U.S. government's official web portal to all federal, state and local government web resources and services.